Temperature
8 8 8 7 7 7 7 6 6 5 5 6 6 6 6 6 6 6 6 6 6 5 5 5 5 5 4 4 4 4 4 4 4 3 3 3 3 3
8 7 7 7 7 7 6 6 6 5 5 5 5 5 5 6 5 5 5 5 5 5 5 4 4 4 4 4 4 4 3 3 3 3 3 3 3 3
7 7 7 7 6 6 6 6 5 5 4 5 5 5 5 5 5 5 5 5 5 4 4 4 4 4 4 4 3 3 3 3 3 3 3 2 2 2
6 6 6 6 6 6 5 5 5 5 4 4 4 4 4 4 4 4 4 4 4 4 4 4 4 3 3 3 3 3 3 2 2 2 2 2 2 2
6 5 5 5 5 5 5 5 4 4 4 3 4 4 4 3 3 4 4 3 3 3 3 3 3 3 3 3 2 2 2 2 2 1 1 1 1 1
5 5 5 5 4 4 4 4 4 3 3 3 3 3 3 3 3 3 3 3 3 3 3 3 2 2 2 2 2 2 2 1 1 1 1 1 1 1
5 4 4 4 4 4 4 3 3 3 2 2 2 2 2 2 2 2 2 2 2 2 2 2 2 2 2 1 1 1 1 1 1 1 0 0 0 0
4 4 4 4 3 3 3 3 3 2 2 2 2 2 2 2 1 1 1 1 1 1 1 1 1 1 1 1 1 1 1 0 0 0 -0 -0 -0 -0
3 3 3 3 3 3 3 2 2 2 2 2 1 1 1 1 1 1 0 0 0 0 0 1 1 0 0 0 0 0 0 -0 -0 -0 -0 -1 -1 -1
2 2 2 2 2 2 2 2 2 2 1 1 1 1 1 0 0 -0 -0 -0 -0 -0 -1 -1 -0 -0 -0 -0 -0 -0 -0 -1 -1 -1 -1 -1 -1 -2
2 2 2 2 2 1 1 1 1 1 1 1 1 0 0 0 -0 -1 -1 -1 -1 -1 -1 -1 -1 -1 -1 -1 -1 -1 -1 -1 -1 -2 -2 -2 -2 -2
1 1 1 1 1 1 1 1 1 0 0 0 0 0 -0 -0 -1 -1 -1 -2 -2 -2 -2 -2 -2 -2 -2 -2 -2 -2 -2 -2 -2 -2 -2 -3 -3 -3
1 1 1 1 0 0 0 0 -0 -0 -0 -0 -0 -1 -1 -1 -1 -1 -2 -2 -2 -3 -2 -3 -3 -3 -3 -3 -2 -2 -3 -3 -3 -3 -3 -3 -3 -4
-0 -0 -0 -0 -0 -0 -0 -0 -1 -1 -1 -1 -1 -1 -1 -1 -2 -2 -2 -2 -2 -3 -3 -3 -3 -4 -4 -4 -4 -3 -3 -3 -3 -3 -4 -4 -4 -4
-1 -1 -1 -1 -1 -1 -1 -1 -1 -1 -2 -2 -2 -2 -2 -2 -2 -2 -2 -3 -3 -3 -3 -3 -4 -4 -4 -4 -4 -4 -4 -4 -4 -4 -4 -4 -4 -4
-1 -1 -1 -1 -2 -2 -2 -2 -2 -2 -2 -2 -3 -3 -3 -3 -3 -3 -3 -3 -3 -3 -3 -4 -4 -4 -4 -4 -5 -5 -5 -5 -5 -5 -5 -5 -5 -5
-2 -2 -2 -2 -2 -2 -2 -2 -3 -3 -3 -3 -3 -3 -3 -3 -4 -4 -4 -4 -4 -4 -4 -4 -4 -5 -5 -5 -5 -5 -5 -5 -5 -5 -5 -5 -5 -5
-3 -3 -3 -3 -3 -3 -3 -3 -3 -3 -3 -4 -4 -4 -4 -4 -4 -4 -4 -5 -5 -5 -5 -5 -5 -5 -5 -5 -5 -5 -5 -6 -6 -6 -6 -6 -5 -5
-4 -4 -4 -4 -4 -4 -4 -4 -4 -4 -4 -4 -5 -5 -5 -5 -5 -5 -5 -5 -5 -5 -5 -6 -6 -6 -6 -6 -6 -6 -6 -6 -6 -6 -6 -6 -6 -6
-4 -4 -4 -4 -4 -5 -5 -5 -5 -5 -5 -5 -5 -5 -5 -5 -5 -5 -5 -6 -6 -6 -6 -6 -6 -7 -7 -7 -7 -6 -6 -6 -7 -6 -6 -6 -6 -6
-5 -5 -5 -5 -5 -5 -5 -5 -5 -5 -5 -6 -6 -6 -6 -6 -6 -6 -6 -6 -6 -6 -6 -6 -7 -7 -7 -7 -7 -6 -6 -6 -7 -7 -7 -7 -7 -7
-5 -5 -5 -5 -6 -6 -6 -6 -6 -6 -6 -6 -6 -6 -6 -6 -6 -6 -6 -7 -7 -7 -7 -7 -7 -7 -7 -7 -7 -7 -7 -6 -7 -7 -7 -7 -8 -8
-6 -6 -6 -6 -6 -6 -6 -6 -6 -6 -7 -7 -7 -7 -7 -7 -7 -7 -7 -7 -7 -7 -7 -7 -7 -7 -7 -7 -7 -7 -7 -7 -7 -7 -7 -7 -7 -7
Wind_Speed
5 5 4 3 3 4 4 5 5 6 6 5 3 3 5 7 7 8 9 9 11 11 11 12 13 13 14 14 14 15 15 15 15 16 17 17 18 18
4 4 4 3 3 3 4 4 5 6 6 5 5 5 6 7 8 8 9 10 10 10 11 12 13 14 14 14 14 15 15 15 15 16 16 17 17 17
4 4 4 4 4 3 4 4 4 5 7 7 6 6 7 7 7 8 8 8 8 10 11 12 13 13 14 14 14 14 14 14 14 15 15 16 16 15
4 4 4 3 4 4 4 4 4 5 6 8 7 6 7 7 7 7 7 8 8 9 10 11 11 12 12 13 13 12 12 12 13 13 14 15 15 15
4 4 4 4 4 4 4 4 4 4 5 6 6 6 5 5 7 7 7 7 8 9 10 11 11 11 11 12 12 12 12 12 13 13 13 14 14 14
3 3 4 4 4 4 4 4 4 4 4 5 6 5 5 5 5 6 6 6 7 8 8 9 10 11 10 11 11 11 11 12 12 12 13 12 13 13
3 4 4 3 4 4 4 4 4 4 4 5 5 5 5 4 5 5 7 7 7 5 6 7 8 7 8 8 9 11 11 11 11 11 12 12 12 12
3 3 3 4 4 4 3 4 4 5 5 5 6 6 7 6 6 5 6 6 5 4 6 7 6 6 6 7 9 11 11 11 11 11 11 11 11 11
3 3 3 2 3 3 3 3 4 5 6 6 7 7 7 6 6 7 6 7 7 6 6 7 6 6 6 8 10 10 10 10 11 11 10 11 11 12
3 4 4 3 3 3 3 3 4 4 5 5 6 6 6 6 7 7 7 7 7 5 5 6 6 6 7 8 9 9 9 10 11 11 11 12 11 12
3 3 3 3 3 3 4 4 5 4 3 4 6 7 7 7 6 5 5 5 6 5 4 4 5 7 7 6 6 8 9 10 11 11 11 11 11 11
2 2 3 3 3 4 4 4 5 5 4 4 4 5 5 5 5 4 4 5 5 4 3 3 5 5 4 4 5 7 7 9 10 11 11 11 11 9
2 2 2 3 4 5 5 5 5 5 5 4 4 4 4 4 4 4 5 4 5 5 4 4 4 4 4 5 6 6 6 7 8 8 9 10 10 9
3 2 2 3 4 5 5 4 5 5 4 3 3 4 4 4 4 5 5 5 6 7 7 6 4 5 5 6 5 5 6 7 6 6 7 9 10 10
2 3 4 4 4 4 3 4 4 3 3 3 4 4 4 4 4 4 5 5 5 6 6 6 6 6 6 6 6 6 6 6 5 6 6 7 7 7
2 1 2 2 2 2 3 3 2 3 3 3 3 3 3 3 4 4 4 4 4 4 5 6 6 6 6 7 6 7 6 5 5 7 7 7 7 7
1 2 2 2 2 2 2 2 2 2 3 2 3 3 3 3 3 3 4 4 4 5 6 5 6 6 6 6 6 6 6 6 6 6 7 8 7 7
2 2 2 2 2 2 2 2 2 2 3 3 3 3 3 3 3 3 3 4 4 5 5 6 6 5 4 3 4 5 5 6 6 7 6 7 8 7
2 2 3 3 2 2 2 3 3 3 3 3 3 3 3 3 3 3 3 4 4 5 5 5 5 5 5 6 3 3 5 7 7 7 6 7 8 9
2 2 2 2 2 2 2 2 2 3 3 3 3 3 3 3 3 3 3 4 4 5 5 4 4 5 5 6 5 6 7 7 7 7 8 7 8 10
1 2 2 2 2 2 2 2 2 3 3 3 3 3 3 3 3 4 4 5 5 5 5 5 5 7 6 4 5 6 6 7 8 7 8 8 7 7
2 2 2 2 2 2 2 2 3 3 3 3 3 3 3 3 4 4 4 4 4 5 5 5 5 5 4 5 6 7 8 8 9 11 10 9 6 5
2 2 2 2 3 3 3 3 3 3 3 3 3 3 3 4 4 4 4 4 4 5 5 5 5 4 4 5 6 6 8 9 7 7 7 9 11 14
Wind_Direction
209 212 220 227 231 236 239 242 254 268 274 267 264 267 293 296 301 297 295 296 295 294 295 298 297 293 292 294 297 298 299 301 300 300 297 297 297 297
211 215 220 226 229 232 237 244 250 258 267 273 275 289 294 296 299 298 294 295 287 292 295 297 298 296 292 293 295 295 298 298 298 297 296 297 296 296
210 216 223 224 228 233 235 238 246 252 262 274 280 289 291 296 304 303 301 300 294 292 295 297 298 296 296 295 296 297 298 298 298 298 300 301 301 301
215 220 230 230 233 235 236 241 250 256 262 273 285 291 292 297 302 304 307 302 297 297 297 297 299 302 304 302 301 301 301 303 303 303 304 303 303 302
218 222 230 233 239 240 244 250 256 261 264 271 283 294 294 303 306 305 305 305 300 300 296 295 297 302 304 304 303 300 300 301 302 302 303 305 307 307
219 223 229 233 240 243 248 255 262 269 272 272 280 291 296 305 306 306 306 307 304 304 300 302 302 300 300 303 305 303 300 300 302 303 304 306 307 307
218 223 231 236 248 253 255 260 263 267 273 276 279 290 292 302 300 304 300 306 301 301 308 309 308 305 304 302 306 311 306 301 299 301 302 304 305 306
220 229 232 232 235 248 267 278 277 272 272 273 277 281 289 296 302 302 303 307 301 307 307 303 304 299 304 305 310 313 311 307 304 306 305 306 307 307
217 227 234 238 248 253 261 268 271 272 271 272 275 280 289 295 299 297 294 293 292 307 306 295 300 297 308 308 309 309 313 315 316 316 315 315 312 309
226 230 233 239 244 256 268 275 280 281 278 275 277 283 289 295 287 284 289 291 294 297 301 291 303 305 311 308 307 307 309 313 316 317 316 317 313 309
229 237 241 248 244 258 264 267 277 283 281 273 281 287 294 297 298 295 296 295 297 301 307 293 304 310 304 298 305 310 309 310 312 315 316 316 314 311
233 241 246 253 262 271 264 266 272 281 287 292 292 292 292 294 292 285 286 289 298 298 311 304 303 316 305 300 311 315 313 310 310 312 315 317 318 317
245 253 258 259 277 282 279 271 272 281 285 286 291 296 301 302 301 297 291 284 283 282 297 305 298 302 291 301 308 309 311 315 317 315 313 317 319 317
254 259 265 276 290 292 288 282 285 288 280 283 287 293 302 308 312 311 306 298 289 284 285 285 280 286 290 294 295 305 311 313 314 313 317 318 316 312
263 266 276 284 295 295 291 292 294 284 278 280 285 294 304 308 312 312 316 315 313 307 296 288 281 281 279 281 287 296 305 306 306 310 315 315 315 315
271 277 298 303 301 301 305 306 294 281 280 282 294 301 308 307 310 316 316 317 314 315 321 314 299 286 282 283 284 290 296 298 306 310 311 309 310 308
272 280 277 278 281 293 304 308 306 297 294 293 292 297 304 307 312 318 314 313 311 311 319 325 325 311 289 283 285 287 294 299 303 312 312 307 304 305
252 249 254 257 262 274 286 297 304 305 307 304 298 297 300 303 308 314 315 315 316 315 317 321 324 321 306 284 261 281 294 300 306 308 305 302 302 307
235 236 245 253 263 274 278 285 295 303 306 303 299 297 298 299 302 308 313 316 316 313 314 317 320 319 313 312 300 277 295 303 305 304 302 299 298 303
238 241 249 257 263 266 272 283 292 297 297 298 299 299 297 296 299 303 306 310 310 312 313 314 316 314 305 302 298 298 299 297 301 304 307 304 298 297
260 262 263 265 267 267 271 277 283 288 294 298 299 298 297 297 298 299 300 303 305 307 308 310 311 311 302 293 291 296 302 302 297 295 302 303 304 305
274 275 276 271 268 265 267 272 278 283 289 291 294 296 295 293 292 295 299 300 301 303 304 307 310 311 305 298 301 304 308 313 307 297 285 276 288 300
282 276 273 270 266 264 265 268 273 277 282 287 288 291 292 290 290 290 292 294 297 304 309 310 312 311 305 299 302 306 309 314 315 315 308 299 289 286
Height
1522 1523 1523 1524 1524 1524 1524 1524 1524 1521 1519 1518 1516 1514 1512 1511 1509 1506 1504 1502 1500 1498 1496 1494 1492 1490 1488 1485 1484 1481 1479 1477 1475 1473 1471 1469 1467 1465
1518 1519 1519 1520 1520 1519 1519 1519 1518 1518 1515 1513 1512 1510 1508 1506 1504 1502 1500 1498 1495 1493 1491 1488 1486 1484 1482 1480 1478 1476 1474 1472 1469 1467 1466 1463 1462 1460
1514 1515 1515 1515 1515 1515 1515 1514 1513 1512 1510 1508 1507 1506 1504 1502 1500 1498 1495 1493 1490 1488 1486 1484 1481 1479 1477 1475 1472 1470 1468 1466 1464 1462 1460 1458 1456 1454
1510 1510 1511 1511 1511 1511 1510 1509 1509 1507 1506 1503 1502 1501 1499 1497 1495 1493 1490 1488 1486 1484 1481 1479 1476 1474 1472 1469 1467 1465 1462 1460 1458 1456 1455 1453 1451 1449
1506 1506 1507 1507 1506 1506 1506 1505 1504 1503 1501 1499 1497 1497 1495 1493 1490 1488 1486 1484 1482 1479 1476 1474 1472 1469 1466 1464 1462 1459 1457 1455 1453 1451 1449 1447 1445 1443
1502 1502 1502 1502 1502 1502 1501 1500 1500 1498 1497 1495 1494 1492 1490 1488 1486 1484 1481 1479 1477 1475 1472 1469 1467 1464 1462 1459 1457 1454 1451 1449 1447 1445 1443 1441 1439 1437
1497 1498 1498 1498 1498 1498 1497 1496 1495 1494 1493 1492 1490 1488 1486 1484 1481 1479 1477 1474 1472 1470 1467 1465 1462 1460 1457 1454 1452 1449 1446 1444 1442 1440 1438 1436 1434 1432
1493 1493 1494 1494 1493 1493 1493 1492 1491 1490 1489 1488 1485 1483 1481 1480 1477 1475 1472 1469 1466 1465 1462 1460 1458 1455 1452 1450 1447 1444 1441 1439 1437 1435 1432 1430 1428 1426
1489 1489 1489 1489 1489 1489 1488 1487 1486 1486 1485 1484 1481 1479 1477 1475 1473 1470 1468 1466 1463 1460 1458 1454 1453 1450 1448 1445 1443 1440 1437 1435 1433 1430 1428 1425 1423 1421
1486 1486 1486 1485 1485 1485 1484 1483 1482 1481 1480 1478 1477 1474 1473 1471 1469 1467 1464 1461 1459 1457 1454 1451 1448 1446 1443 1441 1438 1436 1434 1431 1428 1426 1423 1420 1418 1416
1482 1483 1482 1482 1481 1481 1480 1479 1478 1477 1476 1474 1472 1470 1468 1466 1465 1463 1460 1457 1454 1452 1451 1448 1444 1441 1438 1436 1434 1432 1429 1427 1425 1422 1419 1416 1414 1411
1479 1479 1479 1478 1478 1477 1476 1475 1474 1473 1471 1469 1468 1466 1464 1462 1461 1459 1457 1454 1451 1449 1447 1445 1441 1438 1434 1431 1430 1428 1425 1423 1421 1418 1415 1413 1410 1407
1475 1475 1475 1475 1474 1473 1473 1471 1470 1469 1467 1465 1463 1462 1460 1458 1457 1455 1453 1451 1449 1446 1444 1441 1438 1436 1433 1429 1426 1425 1422 1419 1417 1414 1411 1409 1407 1404
1471 1471 1471 1471 1470 1469 1468 1467 1466 1465 1463 1461 1459 1457 1456 1454 1453 1451 1449 1447 1445 1443 1441 1438 1435 1433 1430 1426 1423 1421 1419 1416 1413 1410 1408 1406 1403 1401
1467 1467 1467 1466 1465 1465 1464 1463 1461 1460 1459 1457 1455 1454 1452 1450 1449 1447 1445 1443 1441 1439 1437 1434 1432 1430 1427 1424 1421 1418 1415 1412 1410 1408 1405 1402 1399 1397
1463 1463 1462 1462 1461 1460 1459 1458 1457 1456 1455 1453 1452 1450 1448 1447 1445 1443 1441 1439 1437 1435 1433 1431 1428 1426 1423 1421 1418 1415 1412 1410 1407 1404 1402 1399 1396 1394
1459 1459 1458 1457 1457 1456 1455 1454 1453 1452 1451 1449 1448 1446 1445 1443 1441 1440 1438 1435 1433 1431 1428 1427 1425 1423 1420 1418 1415 1412 1410 1407 1404 1401 1398 1395 1393 1390
1456 1455 1454 1454 1453 1452 1451 1450 1449 1448 1447 1446 1444 1443 1441 1440 1438 1436 1434 1432 1430 1428 1425 1423 1421 1419 1417 1414 1413 1409 1407 1404 1401 1398 1395 1392 1389 1387
1452 1451 1451 1450 1450 1449 1448 1447 1446 1445 1444 1442 1441 1440 1438 1437 1435 1433 1431 1429 1427 1425 1423 1421 1419 1416 1414 1411 1409 1408 1405 1401 1398 1395 1393 1390 1386 1383
1448 1448 1447 1447 1446 1445 1445 1444 1442 1441 1440 1439 1438 1437 1435 1434 1432 1430 1428 1426 1425 1423 1421 1419 1417 1415 1413 1410 1407 1404 1402 1399 1396 1392 1389 1386 1383 1381
1445 1444 1444 1443 1443 1442 1441 1440 1439 1438 1437 1436 1435 1433 1432 1431 1429 1427 1426 1424 1422 1420 1418 1416 1415 1413 1411 1408 1405 1402 1400 1397 1394 1391 1387 1383 1380 1376
1441 1441 1440 1440 1439 1438 1438 1437 1436 1435 1434 1433 1432 1431 1429 1428 1426 1425 1423 1421 1419 1418 1416 1414 1412 1410 1409 1406 1403 1400 1397 1394 1392 1389 1386 1383 1379 1375
1438 1437 1437 1436 1436 1435 1434 1433 1432 1432 1431 1430 1429 1428 1426 1425 1424 1422 1421 1419 1417 1415 1414 1412 1410 1408 1406 1404 1401 1398 1395 1391 1388 1385 1383 1380 1378 1374